THOR ABLESTAR DEB, 254

Orbit data source: Space-Track

THOR ABLESTAR DEB, 254 is space debris in LEO originally from a launch on Thu, 29 Jun 1961 UTC launched from the Air Force Eastern Test Range (AFETR). Debris objects in space refer to the collection of defunct objects orbiting the Earth. Examples of debris include non-operational satellites, rocket bodies, and fragments generated from explosions, collisions, or faulty payload assembly.

Loading next visibility...
Identifier
254, 1961-015CF
Orbit
LEO
Country
Flag of USUS
Related business
Manufacturer
Unknown
Mission
Spacecraft
Bus & Motor
Unknown
Mass
Unknown
Launch date (UTC)
1961-06-29 (65 years ago)
Launch vehicle
Unknown
Launch site
Air Force Eastern Test Range (AFETR)
Object type
Payload
Rocket body
Debris
Shape & HBR
Unknown shape, 0.1 m
Radar Cross Section
Small (<0.1 m²)

Expand to show TLE details & history
Last TLE update: 7 hours ago

TLE from 7 hours ago
0 THOR ABLESTAR DEB
1   254U 61015CF  26095.44135200  .00002137  00000-0  53475-3 0  9995
2   254  66.7708 115.7369 0054334 138.1905 222.3376 14.52558124363111
Epoch: 2026-04-05T10:35Z
TLE epoch observation values (Epoch: 2026-04-05T10:35:32.812Z)
Latitude
-0.00004°
Longitude
123.10344°
Altitude
748.036 km
Speed
7.466 km/s
True Right ascension
07h 42m 56s
True Declination
0° 00' 00"
Sunlit
Object was in daylight at epoch
Visualization orbit readout
Latitude
Unknown
Longitude
Unknown
Altitude
Unknown
Speed
Unknown
Apparent Right ascension
Unknown
Apparent Declination
Unknown
Sunlit
N/A
Visualization observer readout
Local Sidereal Time
23:14:02
Azimuth
Unknown
Elevation
Unknown
Doppler factor
Unknown
Orbital elements
Apogee altitude
754.198 km
Perigee altitude
677.112 km
Semi-major axis
7,093.792 km
Eccentricity
0.00543
Inclination
66.7708°
RAAN
115.7369°
Arg. of periapsis
138.1905°
True anomaly
221.92036°
Mean anomaly
222.3376°
Eccentric anomaly
222.12877°
Mean motion
3.63267 °/min
Orbital period
99.1 mins
BSTAR
0.00053475
Loading maneuver chart data...
Computing Atmospheric mass density...

Documentation

Showing up to 5 results
|